Regional Weather Roundup
Issued by NWS Green Bay, WI

Home | Current Version | Previous Version | Graphics & Text | Print | Product List | Glossary Off
Versions: 1 2 3 4 5 6 7 8 9 10 11 12 13 14 15 16 17 18 19 20 21 22 23 24 25 26 27 28 29 30 31 32 33 34 35 36 37 38 39 40 41 42 43 44 45 46 47 48 49 50

000
ASUS43 KGRB 252100
RWRGRB

NORTH-CENTRAL AND NORTHEAST WISCONSIN REGIONAL WEATHER ROUNDUP
NATIONAL WEATHER SERVICE GREEN BAY WI
400 PM CDT WED MAY 25 2016

WIZ005-009-010>012-018-019-252200-
NORTH CENTRAL WISCONSIN

CITY           SKY/WX    TMP DP  RH WIND       PRES   REMARKS
IRONWOOD       CLOUDY    75  55  50 E10       29.87F
MANITOWISH WTR NOT AVBL
ARBOR VITAE    NOT AVBL
EAGLE RIVER    NOT AVBL
LAND O LAKES   NOT AVBL
RHINELANDER    MOSUNNY   76  56  49 E20       29.93F
PHILLIPS       NOT AVBL
ANTIGO         NOT AVBL
TOMAHAWK       NOT AVBL
MERRILL        NOT AVBL
$$

WIZ013-073-252200-
NORTHEAST WISCONSIN

CITY           SKY/WX    TMP DP  RH WIND       PRES   REMARKS
IRON MOUNTAIN  SUNNY     72  57  59 E10       29.95F
MARINETTE      MOSUNNY   60  55  83 E14       29.99F
$$

WIZ017-030-035>037-045-252200-
CENTRAL WISCONSIN

CITY           SKY/WX    TMP DP  RH WIND       PRES   REMARKS
MEDFORD        NOT AVBL
WAUSAU         CLOUDY    75  59  57 E12G20    29.90S
MOSINEE        NOT AVBL
MARSHFIELD     TSTM      69  64  84 SE18G25   29.90S
WISC RAPIDS    TSTM      69  63  81 S6        29.93R
STEVENS POINT  NOT AVBL
WAUPACA        NOT AVBL
SHAWANO        NOT AVBL
CLINTONVILLE   NOT AVBL
WAUTOMA        HVY RAIN  72  64  76 NE13      29.87F
$$

WIZ038-039-048-051-252200-
FOX VALLEY

CITY           SKY/WX    TMP DP  RH WIND       PRES   REMARKS
NWS GREEN BAY  MOSUNNY   71  59  65 NE14      29.94F
APPLETON       PTSUNNY   75  55  50 E10G17    29.90F
OSHKOSH        MOSUNNY   74  59  59 E17G25    29.88F
FOND DU LAC    MOSUNNY   77  61  57 SE17G24   29.88F
$$

WIZ022-050-052-252200-
EAST CENTRAL WISCONSIN

CITY           SKY/WX    TMP DP  RH WIND       PRES   REMARKS
EPHRAIM        NOT AVBL
STURGEON BAY   NOT AVBL
MANITOWOC      NOT AVBL
SHEBOYGAN      MOSUNNY   59  53  80 E13       29.96F
$$

LMZ563-521-522-541>543-252200-
LAKESHORE

STATION/POSITION TIME  TEMP    WIND        PRES    VSBY  WAVE
                       AIR SEA DIR/SP/G                  HT/PER
                 (UTC) (F)     (DEG/KT/KT) (MB)    (MI)  (FT/S)
SHEBOYGAN LKSHOR 2000   49      20/ 12/ 12 1016.1F
KEWAUNEE LKSHORE 2000   52      30/  7/ 10 1015.5F
ALGOMA MARINA    2017           50/ 17/ 23   N/A
NORTHPORT PIER   2000   56      60/ 11/ 17 1016.6F
N MID LAKE BUOY  1950   49 45   30/  8/ 10 1017.1F         0
SISTER BAY LKSHO 2004   65      90/  8/ 15   N/A
CHAMBERS ISLAND  2000   57      30/ 11/ 15 1016.6F
MENOMINEE LKSHOR 2000   55      20/ 13/ 14 1015.3F
$$




USA.gov is the U.S. government's official web portal to all federal, state and local government web resources and services.